Powrót do katalogu

ARIANE 5 R/B

AktywnyHEO
NORAD 36583·ROCKET BODY·🇫🇷 France

Wystrzelony May 21, 2010 z Guiana Space Centre

Loading…

Następne Przeloty (najbliższe 24 godziny)

TLE

ŚwieżeSource: Space-Track

Epoka: Sep 14, 2026, 08:01 UTC

1 36583U 10021C   26257.33445395  .00003525  00000-0  88638-3 0  9998
2 36583   2.7622 240.2128 7037034  99.3496 339.3473  2.59323142118248

Śledź ARIANE 5 R/B w czasie rzeczywistym z AllMySat

Download on the App Store